Location: Krakow
(50.0212°N, 19.9423°E)
Time: 14:25:16
(UTC+02:00)

NOAA 18 - Pass Details

Date: 01 May 2025
Orbit: 837 x 857 km, 98.8° (Epoch: 14 May)

Event Time Altitude Azimuth Distance (km) Brightness Sun altitude
Exits shadow 22:13:13 28° 134° (SE) 1,541 6.0 -17.4°
Maximum altitude 22:15:58 56° 68° (ENE) 1,012 5.5 -17.6°
Drops below altitude 10° 22:21:23 10° 352° (N) 2,503 8.6 -18.1°
Sets 22:23:48 0° 348° (NNW) 3,442 9.6 -18.3°
